Date,TemperatureHighF,TemperatureAvgF,TemperatureLowF,DewpointHighF,DewpointAvgF,DewpointLowF,HumidityHigh,HumidityAvg,HumidityLow,PressureMaxIn,PressureMinIn,WindSpeedMaxMPH,WindSpeedAvgMPH,GustSpeedMaxMPH,PrecipitationSumIn
2013-2-1,7.8,-1.6,-12.0,0.0,0.0,0.0,0,0,100,0.00,0.00,0,0,0,0.00
2013-2-2,13.5,7.5,1.8,0.0,0.0,0.0,0,0,100,0.00,0.00,0,0,0,0.00
2013-2-3,15.0,10.8,4.1,0.0,0.0,0.0,0,0,100,0.00,0.00,0,0,0,0.00
2013-2-4,71.7,11.4,3.7,0.0,0.0,0.0,0,0,100,0.00,0.00,0,0,0,0.00
2013-2-5,30.4,22.5,5.9,0.0,0.0,0.0,0,0,100,0.00,0.00,0,0,0,0.00
2013-2-6,28.2,16.4,1.9,0.0,0.0,0.0,0,0,100,0.00,0.00,0,0,0,0.00
2013-2-7,26.6,25.1,19.2,0.0,0.0,0.0,0,0,100,0.00,0.00,0,0,0,0.00
2013-2-8,28.5,24.0,19.6,0.0,0.0,0.0,0,0,100,0.00,0.00,0,0,0,0.00
2013-2-9,32.8,28.7,24.9,0.0,0.0,0.0,0,0,100,0.00,0.00,0,0,0,0.00
2013-2-10,33.9,30.9,28.0,0.0,0.0,0.0,0,0,100,0.00,0.00,0,0,0,0.00
2013-2-11,30.1,24.2,16.1,0.0,0.0,0.0,0,0,100,0.00,0.00,0,0,0,0.00
2013-2-12,37.4,24.8,14.5,0.0,0.0,0.0,0,0,100,0.00,0.00,0,0,0,0.00
2013-2-13,42.1,29.1,18.5,0.0,0.0,0.0,0,0,100,0.00,0.00,0,0,0,0.00
2013-2-14,33.2,27.1,13.7,0.0,0.0,0.0,0,0,100,0.00,0.00,0,0,0,0.00
2013-2-15,20.2,9.8,3.3,0.0,0.0,0.0,0,0,100,0.00,0.00,0,0,0,0.00
2013-2-16,21.0,8.0,-1.0,0.0,0.0,0.0,0,0,100,0.00,0.00,0,0,0,0.00
2013-2-17,34.5,21.4,5.4,0.0,0.0,0.0,0,0,100,0.00,0.00,0,0,0,0.00
2013-2-18,33.7,22.8,5.9,0.0,0.0,0.0,0,0,100,0.00,0.00,0,0,0,0.00
2013-2-19,7.0,2.8,-3.7,0.0,0.0,0.0,0,0,100,0.00,0.00,0,0,0,0.00
2013-2-20,18.6,4.2,-9.4,0.0,0.0,0.0,0,0,100,0.00,0.00,0,0,0,0.00
2013-2-21,22.2,13.2,3.2,0.0,0.0,0.0,0,0,100,0.00,0.00,0,0,0,0.00
2013-2-22,30.7,23.3,18.9,0.0,0.0,0.0,0,0,100,0.00,0.00,0,0,0,0.00
2013-2-23,27.4,19.7,8.7,0.0,0.0,0.0,0,0,100,0.00,0.00,0,0,0,0.00
2013-2-24,36.5,18.8,2.0,0.0,0.0,0.0,0,0,100,0.00,0.00,0,0,0,0.00
2013-2-25,37.6,27.4,14.7,0.0,0.0,0.0,0,0,100,0.00,0.00,0,0,0,0.00
2013-2-26,38.0,28.6,12.8,0.0,0.0,0.0,0,0,100,0.00,0.00,0,0,0,0.00
2013-2-27,38.4,31.7,27.2,0.0,0.0,0.0,0,0,100,0.00,0.00,0,0,0,0.00
2013-2-28,30.0,28.0,23.7,0.0,0.0,0.0,0,0,100,0.00,0.00,0,0,0,0.00